| time (UTC) | temp F | wind direction | speed MPH | gust MPH | rain 1hr in | rain 24hr in | rain mn in | humidity % | barometer mb |
| 20260906183030 | 82 | 106 | 0.0 | 0.0 | 0.00 | 0.12 | 0.12 | 80 | 1014.1 |
| 20260906181536 | 80 | 122 | 0.0 | 0.0 | 0.00 | 0.12 | 0.12 | 80 | 1014.3 |
| 20260906180028 | 79 | 110 | 0.0 | 0.0 | 0.01 | 0.12 | 0.12 | 79 | 1014.5 |
| 20260906174527 | 79 | 108 | 0.0 | 0.0 | 0.01 | 0.12 | 0.12 | 77 | 1014.5 |
| 20260906173030 | 78 | 124 | 0.0 | 0.0 | 0.03 | 0.12 | 0.12 | 77 | 1014.5 |
| 20260906171535 | 78 | 116 | 0.0 | 1.0 | 0.09 | 0.13 | 0.12 | 79 | 1014.7 |
| 20260906170016 | 78 | 77 | 0.0 | 0.0 | 0.11 | 0.12 | 0.11 | 77 | 1014.8 |
| 20260906164537 | 78 | 77 | 0.0 | 4.0 | 0.11 | 0.12 | 0.11 | 78 | 1015.0 |
| 20260906163028 | 79 | 37 | 0.0 | 3.0 | 0.09 | 0.11 | 0.09 | 81 | 1014.8 |
| 20260906161531 | 81 | 20 | 0.0 | 4.0 | 0.03 | 0.16 | 0.03 | 80 | 1014.8 |
| 20260906160017 | 85 | 61 | 0.0 | 2.0 | 0.00 | 0.16 | 0.00 | 78 | 1014.8 |
| 20260906154536 | 88 | 187 | 0.0 | 0.0 | 0.00 | 0.22 | 0.00 | 74 | 1014.6 |
| 20260906153028 | 90 | 250 | 0.0 | 1.0 | 0.00 | 0.35 | 0.00 | 69 | 1014.4 |
| 20260906151531 | 91 | 316 | 0.0 | 0.0 | 0.00 | 0.35 | 0.00 | 69 | 1014.4 |
| 20260906150031 | 90 | 188 | 0.0 | 0.0 | 0.00 | 0.35 | 0.00 | 73 | 1014.2 |
| 20260906144523 | 88 | 264 | 0.0 | 0.0 | 0.00 | 0.35 | 0.00 | 77 | 1014.2 |
| 20260906143026 | 88 | 62 | 0.0 | 0.0 | 0.00 | 0.35 | 0.00 | 76 | 1014.3 |
| 20260906141533 | 87 | 83 | 0.0 | 0.0 | 0.00 | 0.35 | 0.00 | 78 | 1014.2 |
| 20260906140011 | 86 | 119 | 0.0 | 0.0 | 0.00 | 0.35 | 0.00 | 80 | 1014.2 |
| 20260906134520 | 83 | 119 | 0.0 | 0.0 | 0.00 | 0.35 | 0.00 | 75 | 1014.1 |
| 20260906133020 | 80 | 119 | 0.0 | 0.0 | 0.00 | 0.35 | 0.00 | 64 | 1014.1 |
| 20260906131526 | 78 | 119 | 0.0 | 0.0 | 0.00 | 0.36 | 0.00 | 64 | 1013.8 |
| 20260906130043 | 0 | 0.0 | 0.0 | 0.00 | 0.36 | 0.00 | 1013.6 | ||
| 20260906124539 | 0 | 0.0 | 0.0 | 0.00 | 0.36 | 0.00 | 1013.5 | ||
| 20260906123038 | 0 | 0.0 | 0.0 | 0.00 | 0.36 | 0.00 | 1013.4 | ||
| 20260906121535 | 0 | 0.0 | 0.0 | 0.00 | 0.36 | 0.00 | 1013.2 | ||
| 20260906120044 | 0 | 0.0 | 0.0 | 0.00 | 0.36 | 0.00 | 1013.0 | ||
| 20260906114546 | 0 | 0.0 | 0.0 | 0.00 | 0.36 | 0.00 | 1012.8 | ||
| 20260906113036 | 0 | 0.0 | 0.0 | 0.00 | 0.36 | 0.00 | 1012.8 | ||
| 20260906111540 | 0 | 0.0 | 0.0 | 0.00 | 0.36 | 0.00 | 1012.7 | ||
| 20260906110036 | 0 | 0.0 | 0.0 | 0.00 | 0.36 | 0.00 | 1012.6 | ||
| 20260906104542 | 0 | 0.0 | 0.0 | 0.00 | 0.36 | 0.00 | 1012.5 | ||
| 20260906103037 | 0 | 0.0 | 0.0 | 0.00 | 0.36 | 0.00 | 1012.6 | ||
| 20260906101539 | 0 | 0.0 | 0.0 | 0.00 | 0.36 | 0.00 | 1012.4 | ||
| 20260906100036 | 0 | 0.0 | 0.0 | 0.00 | 0.36 | 0.00 | 1012.4 | ||
| 20260906094556 | 0 | 0.0 | 0.0 | 0.00 | 0.36 | 0.00 | 1012.4 | ||
| 20260906093048 | 0 | 0.0 | 0.0 | 0.00 | 0.36 | 0.00 | 1012.2 | ||
| 20260906091537 | 0 | 0.0 | 0.0 | 0.00 | 0.36 | 0.00 | 1012.2 | ||
| 20260906090037 | 0 | 0.0 | 0.0 | 0.00 | 0.36 | 0.00 | 1012.2 | ||
| 20260906084537 | 77 | 0.0 | 0.0 | 0.00 | 0.36 | 0.00 | 1012.2 | ||
| 20260906083044 | 78 | 119 | 0.0 | 0.0 | 0.00 | 0.36 | 0.00 | 71 | 1012.1 |
| 20260906081528 | 78 | 119 | 0.0 | 0.0 | 0.00 | 0.36 | 0.00 | 72 | 1012.3 |
| 20260906080035 | 78 | 119 | 0.0 | 0.0 | 0.00 | 0.36 | 0.00 | 72 | 1012.3 |
| 20260906074533 | 78 | 119 | 0.0 | 0.0 | 0.00 | 0.36 | 0.00 | 72 | 1012.3 |
| 20260906073033 | 78 | 119 | 0.0 | 0.0 | 0.00 | 0.36 | 0.00 | 72 | 1012.3 |
| 20260906071538 | 78 | 119 | 0.0 | 0.0 | 0.00 | 0.36 | 0.00 | 73 | 1012.3 |
| 20260906070024 | 78 | 119 | 0.0 | 0.0 | 0.00 | 0.36 | 0.00 | 72 | 1012.5 |
| 20260906064504 | 78 | 119 | 0.0 | 0.0 | 0.00 | 0.36 | 0.00 | 72 | 1012.4 |
| 20260906063007 | 78 | 119 | 0.0 | 0.0 | 0.00 | 0.36 | 0.00 | 73 | 1012.5 |
| 20260906061512 | 78 | 119 | 0.0 | 0.0 | 0.00 | 0.36 | 0.00 | 73 | 1012.5 |
| 20260906060017 | 78 | 119 | 0.0 | 0.0 | 0.00 | 0.36 | 0.00 | 72 | 1012.5 |
| 20260906054523 | 78 | 119 | 0.0 | 0.0 | 0.00 | 0.36 | 0.00 | 72 | 1012.3 |
| 20260906053009 | 78 | 119 | 0.0 | 0.0 | 0.00 | 0.36 | 0.00 | 72 | 1012.5 |
| 20260906051508 | 78 | 119 | 0.0 | 0.0 | 0.00 | 0.36 | 0.00 | 72 | 1012.5 |
| 20260906050015 | 78 | 119 | 0.0 | 0.0 | 0.00 | 0.36 | 0.00 | 73 | 1012.6 |
| 20260906044518 | 78 | 119 | 0.0 | 0.0 | 0.00 | 0.36 | 0.36 | 74 | 1012.5 |
| 20260906043027 | 78 | 119 | 0.0 | 0.0 | 0.00 | 0.36 | 0.36 | 74 | 1012.6 |
| 20260906041507 | 79 | 119 | 0.0 | 0.0 | 0.00 | 0.36 | 0.36 | 74 | 1012.8 |
| 20260906040018 | 79 | 119 | 0.0 | 0.0 | 0.00 | 0.36 | 0.36 | 75 | 1012.7 |
| 20260906034516 | 79 | 119 | 0.0 | 0.0 | 0.00 | 0.36 | 0.36 | 77 | 1012.8 |
| 20260906033037 | 79 | 119 | 0.0 | 0.0 | 0.00 | 0.36 | 0.36 | 77 | 1012.9 |
| 20260906031536 | 79 | 119 | 0.0 | 0.0 | 0.00 | 0.36 | 0.36 | 78 | 1012.6 |
| 20260906030010 | 79 | 119 | 0.0 | 0.0 | 0.00 | 0.36 | 0.36 | 78 | 1012.8 |
| 20260906024531 | 80 | 119 | 0.0 | 0.0 | 0.00 | 0.36 | 0.36 | 80 | 1012.5 |
| 20260906023025 | 80 | 119 | 0.0 | 0.0 | 0.00 | 0.36 | 0.36 | 80 | 1012.2 |
| 20260906021527 | 81 | 119 | 0.0 | 0.0 | 0.00 | 0.36 | 0.36 | 81 | 1012.0 |
| 20260906020028 | 81 | 119 | 0.0 | 0.0 | 0.00 | 0.36 | 0.36 | 81 | 1012.0 |
| 20260906014515 | 81 | 119 | 0.0 | 0.0 | 0.00 | 0.36 | 0.36 | 81 | 1011.8 |
| 20260906013034 | 82 | 119 | 0.0 | 0.0 | 0.00 | 0.36 | 0.36 | 81 | 1011.6 |
| 20260906011524 | 83 | 119 | 0.0 | 0.0 | 0.00 | 0.36 | 0.36 | 81 | 1011.7 |
| 20260906010028 | 83 | 143 | 0.0 | 0.0 | 0.00 | 0.36 | 0.36 | 81 | 1011.6 |
| 20260906004529 | 83 | 143 | 0.0 | 0.0 | 0.00 | 0.37 | 0.36 | 80 | 1011.7 |
| 20260906003012 | 84 | 143 | 0.0 | 0.0 | 0.00 | 0.37 | 0.36 | 79 | 1011.7 |
| 20260906001522 | 85 | 143 | 0.0 | 0.0 | 0.00 | 0.37 | 0.36 | 78 | 1011.9 |
| 20260906000028 | 85 | 143 | 0.0 | 0.0 | 0.00 | 0.37 | 0.36 | 78 | 1012.1 |
| 20260905234530 | 85 | 143 | 0.0 | 0.0 | 0.00 | 0.37 | 0.36 | 77 | 1012.2 |
| 20260905233030 | 85 | 79 | 0.0 | 0.0 | 0.00 | 0.37 | 0.36 | 76 | 1012.1 |
| 20260905231516 | 86 | 56 | 0.0 | 0.0 | 0.00 | 0.37 | 0.36 | 76 | 1011.9 |
| 20260905230018 | 86 | 90 | 0.0 | 0.0 | 0.00 | 0.37 | 0.36 | 76 | 1011.8 |
| 20260905224525 | 87 | 53 | 0.0 | 0.0 | 0.00 | 0.37 | 0.36 | 75 | 1011.8 |
| 20260905223028 | 88 | 59 | 0.0 | 0.0 | 0.00 | 0.37 | 0.36 | 72 | 1011.6 |
| 20260905221542 | 89 | 115 | 0.0 | 0.0 | 0.00 | 0.37 | 0.36 | 68 | 1011.8 |
| 20260905220012 | 89 | 115 | 0.0 | 0.0 | 0.00 | 0.37 | 0.36 | 66 | 1011.7 |
| 20260905214527 | 90 | 101 | 0.0 | 0.0 | 0.00 | 0.37 | 0.36 | 62 | 1011.8 |
| 20260905213028 | 91 | 58 | 0.0 | 0.0 | 0.00 | 0.37 | 0.36 | 61 | 1012.0 |
| 20260905211537 | 91 | 113 | 0.0 | 0.0 | 0.00 | 0.37 | 0.36 | 61 | 1011.8 |
| 20260905210039 | 91 | 103 | 0.0 | 0.0 | 0.00 | 0.37 | 0.36 | 62 | 1012.0 |
| 20260905204525 | 91 | 100 | 0.0 | 0.0 | 0.00 | 0.37 | 0.36 | 61 | 1012.2 |
| 20260905203009 | 90 | 128 | 0.0 | 0.0 | 0.00 | 0.37 | 0.36 | 66 | 1012.5 |
| 20260905201508 | 89 | 259 | 0.0 | 0.0 | 0.00 | 0.37 | 0.36 | 69 | 1012.5 |
| 20260905200010 | 88 | 110 | 0.0 | 0.0 | 0.00 | 0.37 | 0.36 | 70 | 1012.8 |
| 20260905194510 | 88 | 69 | 0.0 | 0.0 | 0.00 | 0.37 | 0.36 | 74 | 1012.8 |
| 20260905193010 | 87 | 69 | 0.0 | 0.0 | 0.00 | 0.37 | 0.36 | 74 | 1012.7 |
| 20260905191509 | 87 | 103 | 0.0 | 0.0 | 0.00 | 0.37 | 0.36 | 74 | 1013.2 |
| 20260905190007 | 87 | 179 | 0.0 | 0.0 | 0.00 | 0.37 | 0.36 | 76 | 1013.5 |
| 20260905184509 | 85 | 67 | 0.0 | 0.0 | 0.00 | 0.37 | 0.36 | 79 | 1013.6 |